Location: Le Rocchette
(44.3500°N, 7.8333°E)
Time: 22:36:48
(UTC+00:00)

PSLV R/B - Visible Passes

Search period start: 21 February 2020 00:00
Search period end: 02 March 2020 00:00
Orbit: 503 x 581 km, 97.8° (Epoch: 21 February)

Date Brightness Start Highest point End Pass type
(mag) Time Alt. Az. Time Alt. Az. Time Alt. Az.
21 Feb 3.6 04:57:51 10° N 05:01:36 67° WNW 05:05:23 10° SSW visible
22 Feb 3.6 04:51:03 10° N 04:54:50 82° WNW 04:58:39 10° SSW visible
23 Feb 3.7 04:44:15 10° NNE 04:48:02 83° ESE 04:51:53 10° SSW visible
24 Feb 4.0 04:37:27 10° NNE 04:41:15 68° ESE 04:45:05 10° S visible
25 Feb 4.4 04:30:42 10° NNE 04:34:27 55° E 04:38:15 10° S visible
26 Feb 4.8 04:23:58 10° NNE 04:27:39 45° E 04:31:23 10° S visible
27 Feb 5.2 04:17:14 10° NNE 04:20:50 38° E 04:24:29 10° SSE visible
28 Feb 5.6 04:10:33 10° NNE 04:14:01 31° E 04:17:31 10° SSE visible
29 Feb 6.0 04:03:53 10° NE 04:07:11 26° E 04:10:32 10° SSE visible
01 Mar 6.3 03:57:15 10° NE 04:00:21 22° E 04:03:29 10° SSE visible
01 Mar 4.7 05:31:33 10° N 05:34:54 29° WNW 05:38:17 10° SW visible
